• Join FlightAware (Why Join?)
  • Login
  • US Flag 
03:28PM EST


 

Airport Tracker/Info


-or-


 

Live Flight TrackerFlight Track Log ✈ SWA655 ✈ 07-Apr-2013 ✈ KSFO - KLAX

Flight Track Log - Related Links

Times and Time Zones

All times are in EDT time to prevent confusion due to time zone crossing. See the SWA655 flight status page for this flight to view local times or setup timezone preferences in your user account.

Time Position Orientation Groundspeed Altitude Reporting Facility
EDT Latitude Longitude Course Direction KTS MPH feet Rate Location/Type
05:21PM 37.6500 -122.3667 345° North 165 190 1,200  Level Northern Cal TRACON
05:22PM 37.7000 -122.3833 345° North 217 250 4,300 3,060 Climbing Northern Cal TRACON
05:23PM 37.6500 -122.4167 208° Southwest 235 270 7,400 2,940 Climbing Northern Cal TRACON
05:24PM 37.6064 -122.4303 194° South 261 300 9,200 3,180 Climbing Oakland Center
05:25PM 37.5169 -122.4403 185° South 322 371 12,700 3,540 Climbing Oakland Center
05:26PM 37.4403 -122.3536 138° Southeast 380 437 16,400 3,180 Climbing Oakland Center
05:27PM 37.3678 -122.2517 132° Southeast 391 450 19,300 2,880 Climbing Oakland Center
05:28PM 37.2872 -122.1425 133° Southeast 421 484 22,400 2,760 Climbing Oakland Center
05:29PM 37.1908 -122.0108 133° Southeast 427 491 25,000 1,260 Climbing Oakland Center
05:30PM 37.1086 -121.8983 132° Southeast 438 504 25,000  Level Oakland Center
05:31PM 37.0253 -121.7897 134° Southeast 435 501 25,000  Level Oakland Center
05:32PM 36.9436 -121.6803 133° Southeast 432 497 25,000  Level Oakland Center
05:33PM 36.8622 -121.5689 132° Southeast 435 501 25,000  Level Oakland Center
05:34PM 36.7775 -121.4531 132° Southeast 435 501 25,000  Level Oakland Center
05:35PM 36.6950 -121.3447 134° Southeast 432 497 25,000  Level Oakland Center
05:36PM 36.6139 -121.2367 133° Southeast 428 493 25,000  Level Oakland Center
05:37PM 36.5317 -121.1281 133° Southeast 431 496 25,000  Level Oakland Center
05:38PM 36.4508 -121.0222 134° Southeast 426 490 25,000  Level Oakland Center
05:39PM 36.3697 -120.9128 133° Southeast 430 495 25,000  Level Oakland Center
05:40PM 36.2872 -120.8050 134° Southeast 430 495 25,000  Level Oakland Center
05:41PM 36.1878 -120.6758 134° Southeast 433 498 25,000  Level Oakland Center
05:42PM 36.1050 -120.5683 134° Southeast 432 497 25,000  Level Oakland Center
05:43PM 36.0214 -120.4583 133° Southeast 443 510 25,000  Level Oakland Center
05:44PM 35.9394 -120.3547 134° Southeast 426 490 25,000  Level Oakland Center
05:45PM 35.8564 -120.2478 134° Southeast 427 491 25,000  Level Oakland Center
05:46PM 35.7747 -120.1433 134° Southeast 423 487 25,000  Level Oakland Center
05:47PM 35.6928 -120.0372 134° Southeast 424 488 25,000  Level Oakland Center
05:48PM 35.6039 -119.9397 138° Southeast 424 488 25,000  Level Oakland Center
05:49PM 35.5058 -119.8556 145° Southeast 425 489 25,000  Level Oakland Center
05:50PM 35.3692 -119.7392 145° Southeast 425 489 25,000  Level Los Angeles Center
05:52PM 35.2739 -119.6567 145° Southeast 420 483 25,000  Level Los Angeles Center
05:53PM 35.1781 -119.5750 145° Southeast 418 481 25,000  Level Los Angeles Center
05:54PM 35.0833 -119.4936 145° Southeast 417 480 25,000  Level Los Angeles Center
05:55PM 34.9881 -119.4128 145° Southeast 416 479 25,000  Level Los Angeles Center
05:56PM 34.8758 -119.3175 145° Southeast 412 474 25,000  Level Los Angeles Center
05:57PM 34.7808 -119.2375 145° Southeast 414 476 25,000 -600 Level Los Angeles Center
05:58PM 34.6881 -119.1583 145° Southeast 409 471 23,800 -1,860 Descending Los Angeles Center
05:59PM 34.5831 -119.0719 146° Southeast 414 476 21,200 -2,400 Descending Los Angeles Center
06:00PM 34.4894 -118.9942 146° Southeast 409 471 18,900 -2,100 Descending Los Angeles Center
06:01PM 34.4000 -118.9189 145° Southeast 393 452 16,900 -1,980 Descending Los Angeles Center
06:02PM 34.3061 -118.8631 154° Southeast 374 430 14,900 -1,920 Descending Los Angeles Center
06:03PM 34.2094 -118.8281 163° South 363 418 13,000 -1,500 Descending Los Angeles Center
06:04PM 34.1208 -118.7950 163° South 333 383 11,900 -1,440 Descending Los Angeles Center
06:05PM 34.0356 -118.7294 147° Southeast 319 367 10,100 -1,020 Descending Los Angeles Center
06:06PM 34.0261 -118.6303 97° East 298 343 9,800 -960 Descending Los Angeles Center
06:07PM 34.0164 -118.5236 96° East 298 343 8,100 -1,380 Descending Los Angeles Center
06:08PM 34.0108 -118.4364 94° East 283 326 7,000 -1,020 Descending Los Angeles Center
06:09PM 34.0208 -118.3556 81° East 258 297 6,000 -1,020 Descending Los Angeles Center
06:10PM 34.0286 -118.2792 83° East 237 273 4,900 -1,200 Descending Los Angeles Center
06:11PM 34.0078 -118.2194 113° Southeast 213 245 3,600 -1,200 Descending Los Angeles Center
06:12PM 33.9739 -118.2644 228° Southwest 188 216 2,500 -1,020 Descending Los Angeles Center
06:13PM 33.9622 -118.3158 255° West 172 198 1,500 -780 Descending Los Angeles Center
06:14PM 33.9572 -118.3603 262° West 150 173 900 -540 Descending Los Angeles Center
06:15PM 33.9519 -118.4092 263° West 142 163 400 -540 Descending Los Angeles Center
06:17PM 33.9425 -118.4081 228° Southwest  Level Estimated
06:24PM 33.9425 -118.4081 228° Southwest  Level Estimated